Weather History for Charlevoix, MI

Change the Weather History Date:

Friday, September 20, 2013

  Actual Average Record
Temperature  
Mean Temperature 64 °F -  
Max Temperature 70 °F 80 °F 75 °F (2002)
Min Temperature 59 °F 55 °F 41 °F (2010)
Growing Degree Days 14 (Base 50)    
Moisture  
Dew Point 65 °F    
Average Humidity 94    
Maximum Humidity 99    
Minimum Humidity 85    
Precipitation  
Precipitation 0.00 in - - ()
Sea Level Pressure  
Sea Level Pressure 29.72 in    
Wind  
Wind Speed 9 mph (SW)    
Max Wind Speed 15 mph    
Max Gust Speed 23 mph    
Visibility 9 miles    
Events Rain    
Averages and records for this station are not official NWS values.
T = Trace of Precipitation, MM = Missing Value Source: NWS Daily Summary

Daily Weather History Graph

Daily Weather History Graph

Search for Another Location

Airport:

Trip Planner

Search our weather history database for the weather conditions in past years. The results will help you decide how hot, cold, wet, or windy it might be!

Date:

Astronomy

Sep. 20, 2013 Rise Set
Actual Time 7:26 AM EDT 7:41 PM EDT
Civil Twilight 6:56 AM EDT 8:11 PM EDT
Nautical Twilight 6:21 AM EDT 8:46 PM EDT
Astronomical Twilight 5:45 AM EDT 9:21 PM EDT
Moon 8:08 PM EDT (9/20) 8:45 AM EDT (9/20)
Length of Visible Light 13h 14m
Length of Day
12h 15m
Full, 98% of the Moon is Illuminated
Sep 20
Full
Sep 26
Last Quarter
Oct 4
New
Oct 11
First Quarter
Oct 18
Full

Hourly Weather History & Observations

Time (EDT) Temp. Dew Point Humidity Pressure Visibility Wind Dir Wind Speed Gust Speed Precip Events Conditions
12:15 AM 70.2 °F 66.6 °F 88% 29.79 in 10.0 mi SE 8.1 mph 17.3 mph N/A   Scattered Clouds
12:34 AM 70.0 °F 66.4 °F 88% 29.79 in 10.0 mi SSE 9.2 mph - N/A   Scattered Clouds
12:55 AM 70.0 °F 66.2 °F 88% 29.78 in 10.0 mi SE 11.5 mph 17.3 mph N/A   Clear
1:15 AM 69.3 °F 66.2 °F 90% 29.77 in 10.0 mi SSE 6.9 mph - N/A   Clear
1:34 AM 68.9 °F 66.6 °F 92% 29.77 in 10.0 mi SSE 10.4 mph - N/A   Scattered Clouds
1:55 AM 68.9 °F 66.6 °F 92% 29.77 in 10.0 mi SSE 9.2 mph - N/A   Clear
2:15 AM 68.9 °F 66.4 °F 92% 29.77 in 10.0 mi SSE 9.2 mph - N/A   Scattered Clouds
2:34 AM 68.9 °F 65.8 °F 90% 29.78 in 10.0 mi South 8.1 mph - N/A   Mostly Cloudy
2:55 AM 69.3 °F 65.5 °F 88% 29.77 in 10.0 mi South 8.1 mph - N/A   Scattered Clouds
3:14 AM 70.0 °F 65.3 °F 85% 29.74 in 10.0 mi South 9.2 mph 17.3 mph N/A   Mostly Cloudy
3:34 AM 69.1 °F 65.5 °F 88% 29.72 in 10.0 mi South 4.6 mph - N/A   Mostly Cloudy
3:55 AM 68.5 °F 65.5 °F 90% 29.72 in 10.0 mi SSE 8.1 mph - N/A   Scattered Clouds
4:14 AM 68.4 °F 65.7 °F 91% 29.72 in 10.0 mi SSE 12.7 mph 17.3 mph N/A   Clear
4:35 AM 68.2 °F 65.7 °F 92% 29.73 in 10.0 mi South 12.7 mph 18.4 mph N/A   Clear
4:55 AM 68.7 °F 65.7 °F 90% 29.73 in 10.0 mi South 10.4 mph 16.1 mph N/A   Clear
5:14 AM 68.9 °F 65.7 °F 89% 29.72 in 10.0 mi South 5.8 mph - N/A   Clear
5:35 AM 68.9 °F 66.2 °F 91% 29.72 in 10.0 mi SSW 6.9 mph - N/A   Mostly Cloudy
5:55 AM 68.9 °F 66.7 °F 93% 29.72 in 10.0 mi SSW 6.9 mph - N/A   Overcast
6:14 AM 68.5 °F 66.7 °F 94% 29.71 in 10.0 mi South 6.9 mph - N/A   Overcast
6:35 AM 68.4 °F 66.9 °F 95% 29.71 in 10.0 mi South 5.8 mph - N/A   Mostly Cloudy
6:55 AM 68.0 °F 66.9 °F 96% 29.69 in 10.0 mi SSE 6.9 mph - N/A   Clear
7:14 AM 68.2 °F 67.1 °F 96% 29.70 in 7.0 mi South 5.8 mph - N/A   Clear
7:35 AM 68.4 °F 67.5 °F 97% 29.70 in 7.0 mi South 8.1 mph - N/A   Clear
7:55 AM 68.9 °F 67.6 °F 96% 29.70 in 5.0 mi South 9.2 mph - N/A   Clear
8:14 AM 69.1 °F 67.8 °F 96% 29.69 in 7.0 mi SSW 9.2 mph 16.1 mph N/A   Clear
8:35 AM 69.3 °F 67.8 °F 95% 29.70 in 7.0 mi SSW 11.5 mph 16.1 mph N/A   Scattered Clouds
8:54 AM 69.8 °F 67.8 °F 93% 29.69 in 7.0 mi SSW 10.4 mph 17.3 mph N/A   Mostly Cloudy
9:14 AM 69.8 °F 68.0 °F 94% 29.70 in 7.0 mi SSW 10.4 mph - N/A   Overcast
9:35 AM 69.4 °F 67.5 °F 93% 29.71 in 7.0 mi SSW 10.4 mph 17.3 mph N/A   Overcast
9:54 AM 68.4 °F 67.3 °F 96% 29.71 in 3.0 mi SW 10.4 mph - N/A Rain Rain
10:15 AM 67.6 °F 67.1 °F 98% 29.72 in 7.0 mi SW 11.5 mph 18.4 mph N/A   Overcast
10:34 AM 67.6 °F 67.1 °F 98% 29.72 in 5.0 mi SW 9.2 mph - N/A Rain Rain
10:54 AM 67.6 °F 67.3 °F 99% 29.72 in 10.0 mi WSW 11.5 mph - N/A   Overcast
11:15 AM 68.0 °F 67.5 °F 98% 29.72 in 10.0 mi SW 11.5 mph 18.4 mph N/A   Overcast
11:34 AM 67.6 °F 67.3 °F 99% 29.72 in 7.0 mi SW 9.2 mph - N/A   Overcast
11:54 AM 68.4 °F 68.0 °F 99% 29.72 in 7.0 mi SW 9.2 mph - N/A   Overcast
12:15 PM 67.6 °F 67.1 °F 98% 29.72 in 5.0 mi SW 8.1 mph - N/A   Overcast
12:34 PM 67.5 °F 67.1 °F 99% 29.72 in 5.0 mi WSW 8.1 mph - N/A   Overcast
12:55 PM 68.0 °F 67.5 °F 98% 29.71 in 7.0 mi SW 8.1 mph 16.1 mph N/A   Overcast
1:15 PM 68.0 °F 67.1 °F 97% 29.71 in 7.0 mi SW 11.5 mph - N/A   Overcast
1:34 PM 67.8 °F 67.1 °F 98% 29.71 in 7.0 mi WSW 9.2 mph - N/A   Overcast
1:55 PM 67.6 °F 66.7 °F 97% 29.71 in 7.0 mi WSW 9.2 mph - N/A   Overcast
2:15 PM 67.6 °F 66.6 °F 96% 29.71 in 7.0 mi SW 10.4 mph - N/A   Overcast
2:34 PM 67.6 °F 66.7 °F 97% 29.70 in 7.0 mi SW 11.5 mph - N/A   Overcast
2:55 PM 68.5 °F 67.1 °F 95% 29.69 in 7.0 mi SW 10.4 mph - N/A   Overcast
3:15 PM 68.9 °F 67.3 °F 95% 29.69 in 7.0 mi SW 11.5 mph - N/A   Overcast
3:34 PM 68.9 °F 67.1 °F 94% 29.69 in 10.0 mi WSW 11.5 mph - N/A   Overcast
3:55 PM 68.5 °F 67.1 °F 95% 29.69 in 7.0 mi WSW 10.4 mph - N/A   Overcast
4:14 PM 68.9 °F 67.1 °F 94% 29.69 in 10.0 mi WSW 9.2 mph - N/A   Overcast
4:34 PM 68.5 °F 66.6 °F 93% 29.70 in 10.0 mi WSW 9.2 mph - N/A   Overcast
4:55 PM 68.4 °F 66.6 °F 94% 29.70 in 7.0 mi SW 9.2 mph - N/A   Overcast
5:14 PM 68.5 °F 66.9 °F 95% 29.69 in 7.0 mi WSW 10.4 mph - N/A   Overcast
5:34 PM 68.2 °F 66.6 °F 95% 29.70 in 7.0 mi WSW 10.4 mph - N/A   Overcast
5:55 PM 67.6 °F 65.8 °F 94% 29.70 in 7.0 mi WSW 12.7 mph - N/A   Mostly Cloudy
6:14 PM 67.1 °F 64.8 °F 92% 29.70 in 10.0 mi WSW 11.5 mph 16.1 mph N/A   Overcast
6:35 PM 67.1 °F 64.4 °F 91% 29.71 in 10.0 mi WSW 12.7 mph - N/A   Overcast
6:55 PM 66.6 °F 63.5 °F 90% 29.70 in 10.0 mi West 11.5 mph - N/A   Mostly Cloudy
7:14 PM 66.4 °F 63.7 °F 91% 29.71 in 10.0 mi West 11.5 mph - N/A   Mostly Cloudy
7:35 PM 65.7 °F 63.7 °F 93% 29.71 in 10.0 mi West 9.2 mph - N/A   Mostly Cloudy
7:55 PM 65.3 °F 63.5 °F 94% 29.72 in 10.0 mi West 6.9 mph - N/A   Scattered Clouds
8:14 PM 64.8 °F 63.5 °F 96% 29.72 in 10.0 mi WSW 4.6 mph - N/A   Scattered Clouds
8:35 PM 64.4 °F 63.7 °F 98% 29.72 in 10.0 mi WSW 3.5 mph - N/A   Mostly Cloudy
8:55 PM 64.8 °F 64.0 °F 98% 29.72 in 10.0 mi West 3.5 mph - N/A   Overcast
9:14 PM 64.9 °F 64.0 °F 97% 29.72 in 10.0 mi Calm Calm - N/A   Overcast
9:35 PM 64.9 °F 63.7 °F 96% 29.73 in 10.0 mi SW 5.8 mph - N/A   Overcast
9:54 PM 64.8 °F 63.7 °F 96% 29.72 in 10.0 mi WSW 5.8 mph - N/A   Overcast
10:14 PM 61.7 °F 59.4 °F 92% 29.74 in 10.0 mi North 13.8 mph 18.4 mph N/A   Overcast
10:35 PM 61.0 °F 58.6 °F 92% 29.74 in 10.0 mi North 11.5 mph 18.4 mph N/A Rain Light Rain
10:54 PM 60.4 °F 57.4 °F 90% 29.74 in 10.0 mi North 13.8 mph 18.4 mph N/A   Overcast
11:15 PM 60.4 °F 56.5 °F 87% 29.75 in 10.0 mi North 13.8 mph 18.4 mph N/A Rain Light Rain
11:34 PM 59.5 °F 55.9 °F 88% 29.75 in 10.0 mi North 13.8 mph 23.0 mph N/A   Overcast
11:54 PM 59.7 °F 56.1 °F 88% 29.75 in 10.0 mi North 15.0 mph 19.6 mph N/A   Overcast